Location: Dunedin
(45.8670°S, 170.5000°E)
Time: 05:56:55
(UTC+12:00)

IRAS Rocket - Pass Details

Date: 24 January 2019
Orbit: 847 x 878 km, 100.0° (Epoch: 22 April)

Event Time Altitude Azimuth Distance (km) Brightness Sun altitude
Rises 23:28:38 0° 162° (SSE) 3,494 8.0 -17.5°
Reaches altitude 10° 23:31:04 10° 159° (SSE) 2,545 7.1 -17.7°
Maximum altitude 23:36:42 67° 76° (ENE) 941 4.2 -18.2°
Enters shadow 23:39:52 26° 359° (N) 1,627 5.2 -18.5°
